User: anonymous   Login
Location: DARK SKY Beskydy - Park tmavé oblohy, www.darkskybeskydy.cz
(49.4926°N, 18.5016°E)
Time: 14:55:11
(UTC+02:00)
Language:

Tiros 1 - Orbit

View from above orbital plane
View from above orbital plane
View from above satellite
View from above satellite

Ground track
Ground track

The orbit data is extracted from the following two-line orbital elements,

1 00029U 60002B   24198.91221596  .00001440  00000-0  23374-3 0  9999
2 00029  48.3790 108.1232 0022976 136.1019 224.1725 14.76481928438556
Epoch (UTC): 16 July 2024 21:53:35
Eccentricity: 0.0022976
inclination: 48.3790°
perigee height: 624 km
apogee height: 656 km
right ascension of ascending node: 108.1232°
argument of perigee: 136.1019°
revolutions per day: 14.76481928
mean anomaly at epoch: 224.1725°
orbit number at epoch: 43855

The dashed part of the orbit path shows where the satellite is in the earth's shadow,  

DLR